Weather past 2 weeks in Mamoutzou, Mayotte

Now
75 °F

Passing clouds.


Feels Like: 75 °F
Forecast: 73 / 80 °F
Wind: 5 mph from West

Location: Dzaoudzi / Pamanzi Mayotte

Current Time: Oct 20, 2014 at 7:42:24 AM

Latest Report: Oct 20, 2014 at 6:00 AM


Visibility: N/A

Pressure: 29.95 "Hg

Humidity: 89%

Dew point: 72 °F

Location of MamoutzouLocation

Historic Weather in Mamoutzou — Graph

°F

Mamoutzou temperature yesterday

Maximum temperature yesterday: 88 °F (at 11:00 AM)
Minimum temperature yesterday: 73 °F (at 4:30 AM)
Average temperature yesterday: 81 °F

Past Weeks' High & Low Weather Summary

 TemperatureHumidityPressure
High88 °F (Oct 10, 1:00 PM)94% (Oct 15, 5:00 AM)30.07 "Hg (Oct 15, 5:00 AM)
Low73 °F (Oct 15, 4:30 AM)49% (Oct 14, 1:00 PM)29.83 "Hg (Oct 17, 2:00 AM)
Average80 °F75%29.96 "Hg
* Reported Oct 5 6:00 AM — Oct 20 6:00 AM, Mamoutzou, Weather by CustomWeather, © 2014

Note: Actual official high and low records may vary slightly from our data, if they occured in-between our weather recording intervals... More about our weather records

Advertising

Mamoutzou weather history for previous 24 hours

 ConditionsComfort  
Time TempWeatherWind HumidityBarometerVisibility
6:00 AM
Oct 20
75 °FPassing clouds.5 mph89%29.95 "HgN/A
5:30 AM75 °FPassing clouds.3 mph89%29.92 "HgN/A
5:00 AM75 °FClear.2 mph89%29.92 "Hg10 mi
4:30 AM77 °FWarm.3 mph83%29.92 "HgN/A
4:00 AM77 °FWarm.5 mph83%29.89 "HgN/A
3:30 AM77 °FPassing clouds.3 mph83%29.89 "HgN/A
3:00 AM77 °FPartly cloudy.5 mph83%29.89 "HgN/A
2:30 AM77 °FPassing clouds.5 mph83%29.89 "HgN/A
2:00 AM77 °FPassing clouds.5 mph83%29.89 "HgN/A
1:30 AM77 °FPassing clouds.2 mph83%29.89 "HgN/A
1:00 AM77 °FWarm.3 mph83%29.89 "HgN/A
12:30 AM79 °FPartly cloudy.3 mph79%29.92 "HgN/A
12:00 AM79 °FPartly cloudy.3 mph79%29.92 "HgN/A
11:30 PM
Oct 19
79 °FMostly cloudy.3 mph79%29.92 "HgN/A
11:00 PM77 °FPassing clouds.3 mph83%29.92 "HgN/A
10:30 PM79 °FWarm.3 mph79%29.95 "HgN/A
10:00 PM79 °FWarm.3 mph79%29.95 "HgN/A
9:30 PM79 °FPassing clouds.3 mph79%29.95 "HgN/A
9:00 PM81 °FMostly cloudy.5 mph74%29.95 "HgN/A
8:30 PM79 °FPassing clouds.5 mph79%29.95 "HgN/A
8:00 PM81 °FPassing clouds.3 mph74%29.92 "HgN/A
7:30 PM81 °FPassing clouds.5 mph74%29.92 "HgN/A
7:00 PM81 °FPassing clouds.3 mph74%29.92 "HgN/A
6:30 PM81 °FPassing clouds.5 mph74%29.92 "HgN/A
6:00 PM81 °FPassing clouds.5 mph74%29.92 "HgN/A
5:30 PM82 °FPartly sunny.3 mph70%29.89 "HgN/A
5:00 PM84 °FPassing clouds.6 mph66%29.89 "HgN/A
4:30 PM84 °FPassing clouds.3 mph70%29.89 "HgN/A
4:00 PM86 °FPassing clouds.6 mph62%29.86 "HgN/A
3:30 PM86 °FPassing clouds.6 mph66%29.86 "HgN/A
3:00 PM88 °FPassing clouds.10 mph62%29.86 "HgN/A
2:30 PM86 °FPassing clouds.10 mph66%29.89 "HgN/A
2:00 PM88 °FPassing clouds.10 mph62%29.89 "HgN/A
1:30 PM88 °FPassing clouds.12 mph59%29.89 "HgN/A
1:00 PM86 °FPassing clouds.12 mph66%29.89 "HgN/A
12:30 PM88 °FPassing clouds.12 mph62%29.92 "HgN/A
12:00 PM88 °FPassing clouds.13 mph66%29.95 "HgN/A
11:30 AM88 °FPassing clouds.12 mph62%29.95 "HgN/A
11:00 AM88 °FPassing clouds.12 mph66%29.98 "HgN/A
10:30 AM86 °FPassing clouds.12 mph66%29.98 "HgN/A
10:00 AM86 °FPassing clouds.10 mph70%29.98 "HgN/A
9:30 AM86 °FPassing clouds.9 mph66%29.98 "HgN/A
9:00 AM86 °FPassing clouds.9 mph66%29.98 "HgN/A
8:30 AM86 °FPassing clouds.7 mph66%30.01 "HgN/A
8:00 AM84 °FPassing clouds.6 mph70%29.98 "HgN/A
7:30 AM82 °FPassing clouds.6 mph74%29.98 "HgN/A
7:00 AM81 °FPassing clouds.2 mph84%29.98 "HgN/A
Weather by CustomWeather, © 2014

See weather overviewHow to use our weather pages